Notices

What's New in latest Release from April 7th, 2021:

- Updated Glossary, including Speed of Maximum Gust, and Total Hourly Precipitation

- Updated national and regional climate services offices contacts and prices information

- Addition of station inventory lists for 1981-2010, 1971-2000, and 1961-1990 Normals.

If you haven't already, please take our survey and provide feedback about our website: https://eccc.sondage-survey.ca/f/LanguageSelection.aspx?s=442ca660-fcf1-47c0-95a9-59707d6fd709

Hourly Data Report for July 27, 2018

TORONTO CITY
ONTARIO
Current Station Operator: ECCC - MSC

43°40'00.000" N
79°24'00.000" W
112.50 m
6158355
71508
XTO

Download Data

Hourly Data (July 2018)
Hourly Data Report for July 27, 2018
TIME
LST
Temp Definition
°C
Dew Point Definition
°C
Rel Hum Definition
%
Precip. Amount Definition
mm

Wind Dir Definition
10's deg

Wind Spd Definition
km/h
Visibility Definition
km
Stn Press Definition
kPa
Hmdx Definition


Wind Chill Definition


Weather Definition


00:00 21.6 16.8 74 0.0 LegendMM LegendMM   99.73 27   LegendNANA
01:00 20.9 17.4 80 0.0 LegendMM LegendMM   99.70 26   LegendNANA
02:00 19.9 17.0 83 0.0 LegendMM LegendMM   99.68     LegendNANA
03:00 19.9 17.4 86 0.0 LegendMM LegendMM   99.70     LegendNANA
04:00 19.3 16.8 85 0.0 LegendMM LegendMM   99.71     LegendNANA
05:00 18.6 16.0 85 0.0 LegendMM LegendMM   99.75     LegendNANA
06:00 19.6 15.9 79 0.0 LegendMM LegendMM   99.80     LegendNANA
07:00 20.4 14.9 71 0.0 LegendMM LegendMM   99.88     LegendNANA
08:00 21.5 14.4 64 0.0 LegendMM LegendMM   99.92 25   LegendNANA
09:00 23.4 14.5 58 0.0 LegendMM LegendMM   99.96 27   LegendNANA
10:00 23.3 14.8 59 0.0 LegendMM LegendMM   99.98 27   LegendNANA
11:00 23.6 15.3 60 0.0 LegendMM LegendMM   99.99 28   LegendNANA
12:00 24.4 13.8 51 0.0 LegendMM LegendMM   99.98 28   LegendNANA
13:00 26.0 11.8 41 0.0 LegendMM LegendMM   99.98 28   LegendNANA
14:00 26.0 11.1 39 0.0 LegendMM LegendMM   99.97 28   LegendNANA
15:00 25.1 11.7 43 0.0 LegendMM LegendMM   99.98 27   LegendNANA
16:00 26.1 11.9 41 0.0 LegendMM LegendMM   99.96 28   LegendNANA
17:00 25.0 11.7 44 0.0 LegendMM LegendMM   99.98 27   LegendNANA
18:00 23.9 12.5 49 0.0 LegendMM LegendMM   99.98 26   LegendNANA
19:00 23.6 11.6 47 0.0 LegendMM LegendMM   99.98 26   LegendNANA
20:00 23.1 12.4 51 0.0 LegendMM LegendMM   100.02 26   LegendNANA
21:00 22.5 13.5 57 0.0 LegendMM LegendMM   100.08 26   LegendNANA
22:00 19.7 11.6 60 0.0 LegendMM LegendMM   100.11     LegendNANA
23:00 18.9 13.9 73 0.0 LegendMM LegendMM   100.07     LegendNANA

Notes on Data Quality.

Legend

  • E = Estimated
  • M = Missing
  • NA = Not Available*
  • [empty] = Indicates an unobserved value
Date modified: